Regional Weather Roundup
Issued by NWS

Home | Current Version | Previous Version | Graphics & Text | Print | Product List | Glossary On
Versions: 1 2 3 4 5 6 7 8 9 10 11 12 13 14 15 16 17 18 19 20 21 22 23 24 25 26 27 28 29 30 31 32 33 34 35 36 37 38 39 40 41 42 43 44 45 46 47 48 49 50
000
ASUS43 KLOT 200508
RWRIL

ILLINOIS REGIONAL WEATHER ROUNDUP
NATIONAL WEATHER SERVICE CHICAGO/ROMEOVILLE IL
1100 PM CST FRI JAN 19 2018

NOTE: "FAIR" INDICATES FEW OR NO CLOUDS BELOW 12,000 FEET WITH NO
SIGNIFICANT WEATHER AND/OR OBSTRUCTIONS TO VISIBILITY.

* THESE STATIONS ARE NOT UNDER NWS QUALITY CONTROL. THEY ALSO MAY NOT
  REPORT WEATHER SUCH AS PRECIPITATION OR FOG.

ILZ001-002-007-009-015-016-024-200600-
NORTHWEST ILLINOIS

CITY           SKY/WX    TMP DP  RH WIND       PRES   REMARKS
MOLINE         FAIR      42  28  57 SW10      29.79R
STERLING*      FAIR      39  29  67 SW10      29.79R WCI  32
SAVANNA*       FAIR      39  29  68 SW12G17   29.78R WCI  32
$$

ILZ003-004-008-010-011-017-018-200600-
NORTH CENTRAL ILLINOIS

CITY           SKY/WX    TMP DP  RH WIND       PRES   REMARKS
ROCKFORD       MOCLDY    41  28  60 SW12      29.78R
FREEPORT*      FAIR      37  29  74 SW14      29.77R WCI  28
ROCHELLE*      FAIR      36  30  79 SW14      29.78F WCI  27
DE KALB*       FAIR      39  29  67 SW17      29.78S WCI  30
PERU*          FAIR      40  26  56 SW16      29.81S
$$

ILZ005-006-012>014-019>023-200600-
NORTHEAST ILLINOIS

CITY           SKY/WX    TMP DP  RH WIND       PRES   REMARKS
CHICAGO-OHARE  CLOUDY    39  28  64 SW17G25   29.76R WCI  30
CHICAGO-MIDWAY CLOUDY    40  29  64 SW16G23   29.79R
AURORA         FAIR      37  29  72 S10       29.80R WCI  30
LANSING*       FAIR      35  30  80 SW16      29.83R WCI  25
JOLIET*        FAIR      39  30  71 SW8       29.83R WCI  33
WAUKEGAN       FAIR      41  28  60 SW14G25   29.72S
DUPAGE AIRPORT FAIR      37  29  72 SW14      29.78R WCI  28
KANKAKEE*      FAIR     N/A N/A N/A SW12G18   29.87R
WHEELING       FAIR      40  29  64 SW9       29.77R
MORRIS*        FAIR      36  29  76 SW12      29.82R WCI  28
ROMEOVILLE*    FAIR      37  29  75 SW13      29.81S WCI  28
NORTHERLY ISL    N/A     39  27  62 W10         N/A  WCI  32
$$

LMZ740>746-200600-
SOUTHERN LAKE MICHIGAN

STATION/POSITION SKY/WX   TEMP    WIND        PRES    VSBY  WAVE
                          AIR SEA DIR/SP/G                  HT/PER
                          (F)     (DEG/KT/KT) (MB)    (MI)  (FT/S)
HARRISON CRIB              42     220/ 24/ 29   N/A
BURNHAM HARBOR             39     230/  6/ 15   N/A
CALUMET HARBOR             38     210/ 14/ 21 1008.2R
BURNS HARBOR               37     200/ 19/ 26 1009.8R
MICHIGAN CITY              38     190/ 20/ 23   N/A
$$

ILZ025>027-034>036-040-047-049-050-058-095>099-200600-
WEST-CENTRAL ILLINOIS

CITY           SKY/WX    TMP DP  RH WIND       PRES   REMARKS
QUINCY         CLOUDY    41  27  57 SW15      29.86R
GALESBURG*     FAIR      38  30  73 SW8       29.84R WCI  32
MACOMB*        PTCLDY    40  29  64 SW14      29.86R
JACKSONVILLE*  CLOUDY    40  24  54 S9        29.88R
PITTSFIELD*    CLOUDY    43  27  54 SW10      29.89R
$$

ILZ028>032-037-038-041>044-048-051>054-059>061-200600-
CENTRAL ILLINOIS

CITY           SKY/WX    TMP DP  RH WIND       PRES   REMARKS
PONTIAC        FAIR      38  31  76 SW12      29.86R WCI  30
BLOOMINGTON    FAIR      35  27  72 S20       29.85R WCI  24
DECATUR        FAIR      35  30  82 SW18      29.91R WCI  24
PEORIA         FAIR      37  27  67 S9        29.86R WCI  30
LACON*         FAIR      39  27  61 SW12G17   29.83R WCI  32
LINCOLN*       FAIR      36  29  76 S10       29.88S WCI  28
SPRINGFIELD    FAIR      39  27  62 S18       29.89R WCI  30
TAYLORVILLE    FAIR      33  28  81 S13       29.92S WCI  24
$$

ILZ033-039-045-046-055>057-062-063-200600-
EAST-CENTRAL ILLINOIS

CITY           SKY/WX    TMP DP  RH WIND       PRES   REMARKS
CHAMPAIGN      FAIR      33  27  78 S20       29.90S WCI  21
DANVILLE*      FAIR      32  25  73 S21G28    29.87F WCI  20
RANTOUL*       FAIR      35  30  82 S12       29.89R WCI  27
MATTOON        FAIR      33  26  75 S10G20    29.93S WCI  25
PARIS*         FAIR      33  26  76 S15       29.96R WCI  22
$$

ILZ079-100>102-200600-
SOUTHWEST ILLINOIS

CITY           SKY/WX    TMP DP  RH WIND       PRES   REMARKS
ALTON          CLOUDY    35  28  76 S8        29.94S WCI  28
BELLEVILLE     CLOUDY    34  27  75 SW9       29.95S WCI  26
CAHOKIA*       PTCLDY    35  25  66 S5        29.95R WCI  31
SPARTA*        CLOUDY    34  27  74 S12       30.00S WCI  25
$$

ILZ064>066-069>071-074>076-080>082-084>086-088>090-092>094-200600-
SOUTH-CENTRAL ILLINOIS

CITY           SKY/WX    TMP DP  RH WIND       PRES   REMARKS
CARBONDALE     FAIR      36  24  62 SW21G30   30.03S WCI  25
CAIRO*         FAIR      34  21  59 SW7       30.10S WCI  28
EFFINGHAM*     FAIR      35  27  73 S9        29.99R WCI  28
MARION         FAIR      35  21  55 SW12      30.05R WCI  27
MT. VERNON     FAIR      34  24  67 SW17      30.01R WCI  23
CENTRALIA*     CLOUDY    35  28  77 S10       29.98S WCI  27
SALEM*         FAIR      36  27  69 S12       29.98S WCI  27
METROPOLIS*    FAIR      37  21  52 S7        30.10S WCI  31
$$

ILZ067-068-072-073-078-083-087-091-200600-
SOUTHEAST ILLINOIS

CITY           SKY/WX    TMP DP  RH WIND       PRES   REMARKS
LAWRENCEVILLE  FAIR      29  20  69 S10       30.02S WCI  20
FLORA*         FAIR      35  24  63 S10       30.00R WCI  28
FAIRFIELD*     FAIR      35  23  61 S10       30.01R WCI  27
HARRISBURG*    FAIR      37  22  56 SW14G20   30.05S WCI  28
ROBINSON*      FAIR      33  22  61 SW10G16   30.02R WCI  25
CARMI*         FAIR      36  22  57 S13G18    30.03S WCI  27
$$

ABBREVIATIONS USED IN REMARKS
   TC - TEMPERATURE IN CELSIUS
  WCI - WIND CHILL INDEX
   HX - HEAT INDEX
  VSB - VISIBILITY
$$





USA.gov is the U.S. government's official web portal to all federal, state and local government web resources and services.